Showing default

WARATAH SEED-1, 60469

Orbit data source: Space-Track

WARATAH SEED-1, 60469 is a payload satellite owned by U Sydney (AU) in SSO that was launched on Fri, 16 Aug 2024 UTC via an FALCON 9 launch vehicle from the Air Force Western Test Range (AFWTR). Payload-class satellites include a variety of spacecraft equipped with specific instruments for various scientific and technological missions. These include communications satellites like Starlink; space stations such as the ISS; scientific satellites like the Hubble; Earth observation satellites from companies like Planet Labs, Umbra, and HawkEye 360; GPS; miniature CubeSats for education and research; and military/defense satellites.

Loading next visibility...
Identifier
60469, 2024-149B
Orbit
SSO
Country
Flag of AUAU / AUS
Related business
Manufacturer
U Sydney
Mission
Operational Amateur Technology
Bus & Motor
CUBESAT 6U, Unknown motor
Mass
10 kg wet, 10 kg dry
Launch date (UTC)
2024-08-16 (1 year ago)
Launch vehicle
FALCON 9
Launch site
Air Force Western Test Range (AFWTR)
Object type
Payload
Rocket body
Debris
Shape & HBR
Box, 0.1 m
Radar Cross Section
0.080 m², Medium (>0.1 m² and < 1m²)

Expand to show TLE details & history
Last TLE update: 8 hours ago

TLE from 8 hours ago
0 WARATAH SEED-1
1 60469U 24149B   25291.12425007  .00021731  00000-0  78608-3 0  9991
2 60469  97.3953   7.4148 0002449  38.4106 321.7308 15.28442467 65040
Epoch: 2025-10-18T02:58Z
TLE epoch observation values (Epoch: 2025-10-18T02:58:55.206Z)
Latitude
0.00003°
Longitude
-64.175°
Altitude
482.251 km
Speed
7.625 km/s
True Right ascension
00h 29m 39s
True Declination
0° 00' 00"
Sunlit
Object was in full shadow at epoch
Visualization orbit readout
Latitude
Unknown
Longitude
Unknown
Altitude
Unknown
Speed
Unknown
Apparent Right ascension
Unknown
Apparent Declination
Unknown
Sunlit
N/A
Visualization observer readout
Local Sidereal Time
05:51:47
Azimuth
Unknown
Elevation
Unknown
Doppler factor
Unknown
Orbital elements
Apogee altitude
479.101 km
Perigee altitude
475.743 km
Semi-major axis
6,855.559 km
Eccentricity
0.00024
Inclination
97.3953°
RAAN
7.4148°
Arg. of periapsis
38.4106°
True anomaly
321.71341°
Mean anomaly
321.7308°
Eccentric anomaly
321.72211°
Mean motion
3.82366 °/min
Orbital period
94.15 mins
BSTAR
0.00078608
Loading maneuver chart data...
Computing Atmospheric mass density...
Loading historical data...
Loading historical data...
Loading historical data...
Loading historical data...
Loading historical data...
Loading historical data...
Loading historical data...

Documentation

Showing up to 5 results
|